Location: Kawakawa
(35.3830°S, 174.0670°E)
Time: 07:30:07
(UTC+13:00)

A-11 Canister half - Pass Details

Date: 07 December 2019
Orbit: 1525 x 1684 km, 47.3° (Epoch: 19 January)

Event Time Altitude Azimuth Distance (km) Brightness Sun altitude
Rises 04:48:05 0° 244° (WSW) 4,770 11.3 -13.2°
Reaches altitude 10° 04:51:47 10° 256° (WSW) 3,805 10.7 -12.6°
Maximum altitude 04:59:16 26° 307° (NW) 2,785 9.8 -11.4°
Drops below altitude 10° 05:06:55 10° 359° (N) 3,880 10.7 -10.2°
Sets 05:10:48 0° 10° (N) 4,882 11.4 -9.6°
